| time (UTC) | temp C | wind direction | speed KPH | gust KPH | rain 1hr cm | rain 24hr cm | rain mn cm | humidity % | barometer mb |
| 20260505003519 | 15 | 68 | 16.1 | 22.5 | 0.00 | 0.00 | 0.00 | 59 | 1020.9 |
| 20260505003010 | 15 | 90 | 16.1 | 27.4 | 0.00 | 0.00 | 0.00 | 60 | 1021.0 |
| 20260505002519 | 15 | 90 | 12.9 | 22.5 | 0.00 | 0.00 | 0.00 | 60 | 1020.9 |
| 20260505002019 | 15 | 90 | 12.9 | 17.7 | 0.00 | 0.00 | 0.00 | 61 | 1020.8 |
| 20260505001540 | 15 | 90 | 12.9 | 17.7 | 0.00 | 0.00 | 0.00 | 62 | 1020.8 |
| 20260505001039 | 14 | 90 | 9.7 | 16.1 | 0.00 | 0.00 | 0.00 | 63 | 1020.7 |
| 20260505000519 | 14 | 90 | 12.9 | 17.7 | 0.00 | 0.00 | 0.00 | 63 | 1020.7 |
| 20260505000028 | 13 | 90 | 12.9 | 19.3 | 0.00 | 0.00 | 0.00 | 64 | 1020.5 |
| 20260504235519 | 13 | 90 | 11.3 | 17.7 | 0.00 | 0.00 | 0.00 | 67 | 1020.5 |
| 20260504235020 | 12 | 90 | 8.0 | 12.9 | 0.00 | 0.00 | 0.00 | 71 | 1020.4 |
| 20260504234600 | 11 | 135 | 3.2 | 6.4 | 0.00 | 0.00 | 0.00 | 72 | 1020.3 |
| 20260504234019 | 11 | 135 | 4.8 | 6.4 | 0.00 | 0.00 | 0.00 | 71 | 1020.3 |
| 20260504233519 | 11 | 158 | 4.8 | 6.4 | 0.00 | 0.00 | 0.00 | 69 | 1020.4 |
| 20260504233008 | 12 | 158 | 4.8 | 8.0 | 0.00 | 0.00 | 0.00 | 68 | 1020.3 |
| 20260504232519 | 12 | 135 | 4.8 | 14.5 | 0.00 | 0.00 | 0.00 | 65 | 1020.3 |
| 20260504232019 | 13 | 90 | 12.9 | 19.3 | 0.00 | 0.00 | 0.00 | 65 | 1020.2 |
| 20260504231518 | 12 | 90 | 12.9 | 17.7 | 0.00 | 0.00 | 0.00 | 66 | 1020.1 |
| 20260504231019 | 12 | 90 | 9.7 | 16.1 | 0.00 | 0.00 | 0.00 | 68 | 1020.1 |
| 20260504230542 | 12 | 90 | 9.7 | 12.9 | 0.00 | 0.00 | 0.00 | 68 | 1020.0 |
| 20260504230006 | 12 | 90 | 9.7 | 14.5 | 0.00 | 0.00 | 0.00 | 68 | 1019.9 |
| 20260504225519 | 11 | 90 | 9.7 | 12.9 | 0.00 | 0.00 | 0.00 | 68 | 1019.9 |
| 20260504225019 | 12 | 90 | 8.0 | 11.3 | 0.00 | 0.00 | 0.00 | 68 | 1019.9 |
| 20260504224539 | 12 | 90 | 6.4 | 11.3 | 0.00 | 0.00 | 0.00 | 67 | 1019.9 |
| 20260504224019 | 12 | 113 | 9.7 | 16.1 | 0.00 | 0.00 | 0.00 | 67 | 1019.8 |
| 20260504223518 | 12 | 113 | 9.7 | 14.5 | 0.00 | 0.00 | 0.00 | 68 | 1019.9 |
| 20260504223007 | 11 | 113 | 8.0 | 12.9 | 0.00 | 0.00 | 0.00 | 68 | 1019.7 |
| 20260504222519 | 11 | 90 | 8.0 | 12.9 | 0.00 | 0.00 | 0.00 | 68 | 1019.7 |
| 20260504222019 | 12 | 90 | 6.4 | 12.9 | 0.00 | 0.00 | 0.00 | 67 | 1019.7 |
| 20260504221539 | 12 | 90 | 9.7 | 12.9 | 0.00 | 0.00 | 0.00 | 67 | 1019.7 |
| 20260504221141 | 12 | 90 | 9.7 | 14.5 | 0.00 | 0.00 | 0.00 | 66 | 1019.7 |
| 20260504220539 | 12 | 113 | 11.3 | 16.1 | 0.00 | 0.00 | 0.00 | 66 | 1019.6 |
| 20260504220012 | 12 | 113 | 9.7 | 14.5 | 0.00 | 0.00 | 0.00 | 67 | 1019.7 |
| 20260504215518 | 12 | 113 | 8.0 | 16.1 | 0.00 | 0.00 | 0.00 | 67 | 1019.7 |
| 20260504215019 | 12 | 90 | 8.0 | 14.5 | 0.00 | 0.00 | 0.00 | 67 | 1019.7 |
| 20260504214539 | 12 | 90 | 8.0 | 12.9 | 0.00 | 0.00 | 0.00 | 67 | 1019.6 |
| 20260504214019 | 12 | 90 | 6.4 | 11.3 | 0.00 | 0.00 | 0.00 | 67 | 1019.7 |
| 20260504213519 | 12 | 90 | 8.0 | 12.9 | 0.00 | 0.00 | 0.00 | 67 | 1019.6 |
| 20260504213007 | 12 | 90 | 9.7 | 16.1 | 0.00 | 0.00 | 0.00 | 67 | 1019.5 |
| 20260504212519 | 12 | 90 | 11.3 | 16.1 | 0.00 | 0.00 | 0.00 | 67 | 1019.4 |
| 20260504212018 | 12 | 90 | 9.7 | 14.5 | 0.00 | 0.00 | 0.00 | 68 | 1019.6 |
| 20260504211539 | 11 | 113 | 8.0 | 12.9 | 0.00 | 0.00 | 0.00 | 69 | 1019.5 |
| 20260504211019 | 11 | 90 | 3.2 | 9.7 | 0.00 | 0.00 | 0.00 | 72 | 1019.5 |
| 20260504210518 | 11 | 90 | 1.6 | 3.2 | 0.00 | 0.00 | 0.00 | 71 | 1019.6 |
| 20260504210006 | 11 | 90 | 1.6 | 4.8 | 0.00 | 0.00 | 0.00 | 71 | 1019.5 |
| 20260504205518 | 11 | 113 | 1.6 | 6.4 | 0.00 | 0.00 | 0.00 | 70 | 1019.4 |
| 20260504205019 | 11 | 0.0 | 3.2 | 0.00 | 0.00 | 0.00 | 70 | 1019.4 | |
| 20260504204518 | 11 | 113 | 1.6 | 6.4 | 0.00 | 0.00 | 0.00 | 69 | 1019.3 |
| 20260504204019 | 11 | 113 | 1.6 | 3.2 | 0.00 | 0.00 | 0.00 | 69 | 1019.3 |
| 20260504203519 | 12 | 113 | 1.6 | 4.8 | 0.00 | 0.00 | 0.00 | 68 | 1019.3 |
| 20260504203006 | 12 | 113 | 3.2 | 8.0 | 0.00 | 0.00 | 0.00 | 67 | 1019.2 |
| 20260504202019 | 12 | 113 | 4.8 | 11.3 | 0.00 | 0.00 | 0.00 | 67 | 1019.3 |
| 20260504201518 | 12 | 113 | 6.4 | 11.3 | 0.00 | 0.00 | 0.00 | 67 | 1019.2 |
| 20260504201039 | 12 | 113 | 8.0 | 11.3 | 0.00 | 0.00 | 0.00 | 67 | 1019.1 |
| 20260504200518 | 12 | 90 | 8.0 | 12.9 | 0.00 | 0.00 | 0.00 | 67 | 1019.1 |
| 20260504200006 | 12 | 90 | 8.0 | 12.9 | 0.00 | 0.00 | 0.00 | 67 | 1019.1 |
| 20260504195539 | 12 | 90 | 8.0 | 12.9 | 0.00 | 0.00 | 0.00 | 67 | 1019.0 |
| 20260504195019 | 12 | 90 | 8.0 | 12.9 | 0.00 | 0.00 | 0.00 | 67 | 1018.9 |
| 20260504194519 | 12 | 90 | 8.0 | 12.9 | 0.00 | 0.00 | 0.00 | 67 | 1019.0 |
| 20260504194019 | 12 | 90 | 8.0 | 11.3 | 0.00 | 0.00 | 0.00 | 67 | 1019.1 |
| 20260504193518 | 12 | 113 | 6.4 | 14.5 | 0.00 | 0.00 | 0.00 | 67 | 1018.9 |
| 20260504193007 | 12 | 113 | 4.8 | 9.7 | 0.00 | 0.00 | 0.00 | 67 | 1018.9 |
| 20260504192518 | 12 | 90 | 4.8 | 9.7 | 0.00 | 0.00 | 0.00 | 67 | 1018.9 |
| 20260504192018 | 12 | 113 | 6.4 | 11.3 | 0.00 | 0.00 | 0.00 | 67 | 1018.9 |
| 20260504191539 | 12 | 90 | 8.0 | 12.9 | 0.00 | 0.00 | 0.00 | 67 | 1018.9 |
| 20260504191018 | 12 | 90 | 9.7 | 14.5 | 0.00 | 0.00 | 0.00 | 67 | 1018.8 |
| 20260504190518 | 12 | 90 | 9.7 | 12.9 | 0.00 | 0.00 | 0.00 | 67 | 1018.9 |
| 20260504190008 | 12 | 113 | 9.7 | 14.5 | 0.00 | 0.00 | 0.00 | 67 | 1018.9 |
| 20260504185518 | 12 | 90 | 9.7 | 14.5 | 0.00 | 0.00 | 0.00 | 67 | 1018.9 |
| 20260504185018 | 12 | 90 | 8.0 | 12.9 | 0.00 | 0.00 | 0.00 | 67 | 1019.0 |
| 20260504184519 | 12 | 113 | 8.0 | 12.9 | 0.00 | 0.00 | 0.00 | 67 | 1019.1 |
| 20260504184018 | 12 | 113 | 6.4 | 11.3 | 0.00 | 0.00 | 0.00 | 67 | 1019.2 |
| 20260504183539 | 12 | 113 | 8.0 | 14.5 | 0.00 | 0.00 | 0.00 | 68 | 1019.1 |
| 20260504183029 | 12 | 113 | 6.4 | 11.3 | 0.00 | 0.00 | 0.00 | 68 | 1019.2 |
| 20260504182518 | 12 | 113 | 6.4 | 11.3 | 0.00 | 0.00 | 0.00 | 68 | 1019.2 |
| 20260504182018 | 12 | 90 | 4.8 | 11.3 | 0.00 | 0.00 | 0.00 | 68 | 1019.2 |
| 20260504181519 | 12 | 90 | 1.6 | 4.8 | 0.00 | 0.00 | 0.00 | 68 | 1019.3 |
| 20260504181019 | 12 | 0.0 | 3.2 | 0.00 | 0.00 | 0.00 | 67 | 1019.3 | |
| 20260504180518 | 12 | 90 | 1.6 | 3.2 | 0.00 | 0.00 | 0.00 | 67 | 1019.3 |
| 20260504180008 | 12 | 90 | 3.2 | 6.4 | 0.00 | 0.00 | 0.00 | 66 | 1019.3 |
| 20260504175519 | 12 | 90 | 8.0 | 16.1 | 0.00 | 0.00 | 0.00 | 66 | 1019.2 |
| 20260504175018 | 12 | 90 | 8.0 | 12.9 | 0.00 | 0.00 | 0.00 | 67 | 1019.1 |
| 20260504174518 | 12 | 90 | 3.2 | 6.4 | 0.00 | 0.00 | 0.00 | 65 | 1019.0 |
| 20260504174018 | 13 | 90 | 8.0 | 12.9 | 0.00 | 0.00 | 0.00 | 64 | 1019.1 |
| 20260504173518 | 13 | 90 | 11.3 | 16.1 | 0.00 | 0.00 | 0.00 | 64 | 1019.1 |
| 20260504173008 | 13 | 90 | 9.7 | 16.1 | 0.00 | 0.00 | 0.00 | 64 | 1019.2 |
| 20260504172518 | 13 | 90 | 9.7 | 14.5 | 0.00 | 0.00 | 0.00 | 64 | 1019.2 |
| 20260504172018 | 13 | 90 | 6.4 | 12.9 | 0.00 | 0.00 | 0.00 | 63 | 1019.2 |
| 20260504171518 | 13 | 113 | 6.4 | 14.5 | 0.00 | 0.00 | 0.00 | 63 | 1019.1 |
| 20260504171020 | 13 | 113 | 9.7 | 14.5 | 0.00 | 0.00 | 0.00 | 62 | 1018.9 |
| 20260504170518 | 13 | 113 | 9.7 | 20.9 | 0.00 | 0.00 | 0.00 | 61 | 1018.8 |
| 20260504151020 | 15 | 90 | 14.5 | 22.5 | 0.00 | 0.00 | 0.00 | 54 | 1019.3 |
| 20260504150519 | 15 | 90 | 14.5 | 22.5 | 0.00 | 0.00 | 0.00 | 53 | 1019.3 |
| 20260504141019 | 16 | 90 | 12.9 | 17.7 | 0.00 | 0.00 | 0.00 | 50 | 1019.6 |
| 20260504140519 | 16 | 113 | 12.9 | 20.9 | 0.00 | 0.00 | 0.00 | 50 | 1019.7 |
| 20260504130519 | 17 | 90 | 11.3 | 17.7 | 0.00 | 0.00 | 0.00 | 48 | 1019.6 |
| 20260504110518 | 19 | 180 | 4.8 | 11.3 | 0.00 | 0.00 | 0.00 | 42 | 1018.8 |
| 20260504100519 | 20 | 113 | 9.7 | 17.7 | 0.00 | 0.00 | 0.00 | 40 | 1018.3 |
| 20260504081518 | 22 | 113 | 12.9 | 19.3 | 0.00 | 0.00 | 0.00 | 34 | 1018.5 |
| 20260504081039 | 23 | 113 | 14.5 | 20.9 | 0.00 | 0.00 | 0.00 | 34 | 1018.6 |
| 20260504080518 | 23 | 113 | 14.5 | 20.9 | 0.00 | 0.00 | 0.00 | 35 | 1018.5 |
| 20260504050518 | 22 | 113 | 14.5 | 22.5 | 0.00 | 0.00 | 0.00 | 38 | 1018.9 |
| 20260504045518 | 22 | 68 | 22.5 | 32.2 | 0.00 | 0.00 | 0.00 | 39 | 1019.1 |
| 20260504045038 | 21 | 90 | 19.3 | 30.6 | 0.00 | 0.00 | 0.00 | 38 | 1019.2 |
| 20260504044538 | 21 | 90 | 19.3 | 25.7 | 0.00 | 0.00 | 0.00 | 39 | 1019.3 |
| 20260504044018 | 21 | 90 | 19.3 | 27.4 | 0.00 | 0.00 | 0.00 | 39 | 1019.3 |
| 20260504043517 | 21 | 90 | 14.5 | 24.1 | 0.00 | 0.00 | 0.00 | 40 | 1019.3 |
| 20260504043006 | 21 | 90 | 20.9 | 29.0 | 0.00 | 0.00 | 0.00 | 39 | 1019.4 |
| 20260504042517 | 21 | 90 | 20.9 | 35.4 | 0.00 | 0.00 | 0.00 | 39 | 1019.4 |
| 20260504042059 | 21 | 90 | 20.9 | 32.2 | 0.00 | 0.00 | 0.00 | 39 | 1019.6 |
| 20260504041519 | 21 | 90 | 17.7 | 27.4 | 0.00 | 0.00 | 0.00 | 39 | 1019.8 |
| 20260504041017 | 21 | 68 | 20.9 | 35.4 | 0.00 | 0.00 | 0.00 | 39 | 1019.9 |
| 20260504040539 | 21 | 90 | 17.7 | 32.2 | 0.00 | 0.00 | 0.00 | 39 | 1020.0 |
| 20260504040049 | 21 | 90 | 22.5 | 30.6 | 0.00 | 0.00 | 0.00 | 40 | 1020.0 |
| 20260504035559 | 21 | 68 | 24.1 | 43.5 | 0.00 | 0.00 | 0.00 | 41 | 1020.1 |
| 20260504035017 | 21 | 90 | 20.9 | 33.8 | 0.00 | 0.00 | 0.00 | 41 | 1020.3 |
| 20260504034517 | 21 | 68 | 20.9 | 30.6 | 0.00 | 0.00 | 0.00 | 42 | 1020.4 |
| 20260504034017 | 20 | 68 | 27.4 | 38.6 | 0.00 | 0.00 | 0.00 | 42 | 1020.3 |
| 20260504033517 | 20 | 68 | 27.4 | 38.6 | 0.00 | 0.00 | 0.00 | 43 | 1020.5 |
| 20260504033008 | 20 | 68 | 22.5 | 33.8 | 0.00 | 0.00 | 0.00 | 43 | 1020.6 |
| 20260504032518 | 20 | 68 | 25.7 | 37.0 | 0.00 | 0.00 | 0.00 | 43 | 1020.7 |
| 20260504032018 | 20 | 90 | 20.9 | 30.6 | 0.00 | 0.00 | 0.00 | 43 | 1020.8 |
| 20260504031538 | 20 | 68 | 27.4 | 41.8 | 0.00 | 0.00 | 0.00 | 43 | 1020.9 |
| 20260504031017 | 20 | 90 | 24.1 | 37.0 | 0.00 | 0.00 | 0.00 | 43 | 1020.9 |
| 20260504030517 | 20 | 68 | 25.7 | 40.2 | 0.00 | 0.00 | 0.00 | 43 | 1020.9 |
| 20260504030008 | 20 | 68 | 25.7 | 37.0 | 0.00 | 0.00 | 0.00 | 44 | 1020.8 |
| 20260504025518 | 20 | 68 | 29.0 | 43.5 | 0.00 | 0.00 | 0.00 | 44 | 1020.9 |
| 20260504025017 | 20 | 68 | 30.6 | 38.6 | 0.00 | 0.00 | 0.00 | 44 | 1021.1 |
| 20260504024517 | 20 | 68 | 25.7 | 37.0 | 0.00 | 0.00 | 0.00 | 44 | 1021.2 |
| 20260504024017 | 20 | 68 | 29.0 | 43.5 | 0.00 | 0.00 | 0.00 | 45 | 1021.2 |
| 20260504023518 | 20 | 68 | 25.7 | 38.6 | 0.00 | 0.00 | 0.00 | 45 | 1021.3 |
| 20260504023007 | 20 | 68 | 27.4 | 37.0 | 0.00 | 0.00 | 0.00 | 45 | 1021.4 |
| 20260504022517 | 19 | 68 | 29.0 | 41.8 | 0.00 | 0.00 | 0.00 | 47 | 1021.4 |
| 20260504022018 | 19 | 68 | 30.6 | 41.8 | 0.00 | 0.00 | 0.00 | 47 | 1021.5 |
| 20260504021517 | 18 | 68 | 32.2 | 43.5 | 0.00 | 0.00 | 0.00 | 47 | 1021.4 |
| 20260504021018 | 19 | 68 | 25.7 | 40.2 | 0.00 | 0.00 | 0.00 | 48 | 1021.6 |
| 20260504020518 | 18 | 68 | 25.7 | 38.6 | 0.00 | 0.00 | 0.00 | 48 | 1021.7 |
| 20260504020007 | 18 | 68 | 27.4 | 40.2 | 0.00 | 0.00 | 0.00 | 49 | 1021.7 |
| 20260504015517 | 18 | 68 | 25.7 | 37.0 | 0.00 | 0.00 | 0.00 | 49 | 1021.8 |
| 20260504015018 | 18 | 68 | 25.7 | 38.6 | 0.00 | 0.00 | 0.00 | 50 | 1022.0 |
| 20260504014517 | 18 | 68 | 27.4 | 40.2 | 0.00 | 0.00 | 0.00 | 50 | 1022.0 |
| 20260504014038 | 18 | 68 | 27.4 | 40.2 | 0.00 | 0.00 | 0.00 | 51 | 1021.9 |
| 20260504013518 | 18 | 68 | 25.7 | 40.2 | 0.00 | 0.00 | 0.00 | 51 | 1022.0 |
| 20260504013028 | 17 | 68 | 20.9 | 33.8 | 0.00 | 0.00 | 0.00 | 53 | 1022.1 |
| 20260504012517 | 17 | 90 | 22.5 | 33.8 | 0.00 | 0.00 | 0.00 | 55 | 1022.1 |
| 20260504012017 | 17 | 68 | 22.5 | 33.8 | 0.00 | 0.00 | 0.00 | 55 | 1022.2 |
| 20260504011517 | 16 | 68 | 22.5 | 32.2 | 0.00 | 0.00 | 0.00 | 56 | 1022.1 |
| 20260504011019 | 16 | 68 | 24.1 | 38.6 | 0.00 | 0.00 | 0.00 | 57 | 1022.1 |
| 20260504010519 | 16 | 68 | 25.7 | 35.4 | 0.00 | 0.00 | 0.00 | 58 | 1022.1 |
| 20260504010031 | 16 | 90 | 24.1 | 38.6 | 0.00 | 0.00 | 0.00 | 58 | 1022.4 |
| 20260504005519 | 16 | 68 | 25.7 | 35.4 | 0.00 | 0.00 | 0.00 | 60 | 1022.3 |
| 20260504005019 | 16 | 68 | 24.1 | 32.2 | 0.00 | 0.00 | 0.00 | 60 | 1022.2 |
| 20260504004519 | 15 | 68 | 20.9 | 30.6 | 0.00 | 0.00 | 0.00 | 62 | 1022.2 |
| 20260504004019 | 15 | 68 | 19.3 | 30.6 | 0.00 | 0.00 | 0.00 | 63 | 1022.0 |